Regional Weather Roundup
Issued by NWS

Home | Current Version | Previous Version | Text Only | Print | Product List | Glossary On
Versions: 1 2 3 4 5 6 7 8 9 10 11 12 13 14 15 16 17 18 19 20 21 22 23 24 25 26 27 28 29 30 31 32 33 34 35 36 37 38 39 40 41 42 43 44 45 46 47 48 49 50
000
ASUS45 KPSR 271210
RWRAZ

ARIZONA REGIONAL HOURLY WEATHER ROUNDUP
NATIONAL WEATHER SERVICE PHOENIX AZ
500 AM MST FRI MAR 27 2015

NOTE: FAIR INDICATES FEW OR NO CLOUDS BELOW 12,000 FEET WITH NO
SIGNIFICANT WEATHER AND/OR OBSTRUCTIONS TO VISIBILITY.

AZZ001>003-036-271300-
NORTHWEST ARIZONA

CITY           SKY/WX    TMP DP  RH WIND       PRES   REMARKS
BULLHEAD CITY  CLEAR     63  28  27 CALM      30.08S
KINGMAN        CLEAR     43  25  49 E6        30.20S
6HR MIN TEMP:  41; 6HR MAX TEMP:  56;

$$

AZZ004>008-015-016-018-271300-
NORTH CENTRAL ARIZONA

CITY           SKY/WX    TMP DP  RH WIND       PRES   REMARKS
GRAND CANYON   PTCLDY    23  16  74 CALM      30.36S
6HR MIN TEMP:  23; 6HR MAX TEMP:  30;

WILLIAMS       PTCLDY    30  18  59 S7        30.41S WCI  23
PRESCOTT       PTCLDY    38  22  52 SW3       30.28R
6HR MIN TEMP:  38; 6HR MAX TEMP:  49;

FLAGSTAFF      PTCLDY    26  16  65 CALM      30.37R
6HR MIN TEMP:  26; 6HR MAX TEMP:  32;

PAYSON         PTCLDY    52  12  20 E7        30.28S
PAGE           CLEAR     47  21  35 CALM      30.27R
6HR MIN TEMP:  47; 6HR MAX TEMP:  55;

$$

AZZ009>014-017-271300-
NORTHEAST ARIZONA

CITY           SKY/WX    TMP DP  RH WIND       PRES   REMARKS
WINSLOW        MOCLDY    33  15  47 CALM      30.32R
6HR MIN TEMP:  32; 6HR MAX TEMP:  47;

SAINT JOHNS    CLOUDY    37  15  40 S7        30.32R WCI  32
6HR MIN TEMP:  34; 6HR MAX TEMP:  45;

WINDOW ROCK    PTCLDY    28  13  53 CALM      30.35R
6HR MIN TEMP:  24; 6HR MAX TEMP:  37;

SHOW LOW       MOCLDY    28  10  47 CALM      30.37S
$$

AZZ023-271300-
GREATER PHOENIX AREA

CITY           SKY/WX    TMP DP  RH WIND       PRES   REMARKS
PHOENIX        CLEAR     67  28  23 E5        30.05R
6HR MIN TEMP:  64; 6HR MAX TEMP:  79;

BUCKEYE        CLEAR     54  32  43 N5        30.07R
LUKE AFB       CLEAR     59  35  39 N9        30.06R
6HR MIN TEMP:  57; 6HR MAX TEMP:  67;

DEER VALLEY    CLEAR     63  28  26 NE5       30.07R
6HR MIN TEMP:  62; 6HR MAX TEMP:  68;

SCOTTSDALE     CLEAR     61  34  36 CALM      30.07S
6HR MIN TEMP:  59; 6HR MAX TEMP:  71;

MESA-GATEWAY   CLEAR     52  32  46 SE9       30.09R
$$

AZZ027-028-271300-
SOUTHWEST MARICOPA COUNTY AND PINAL COUNTY

CITY           SKY/WX    TMP DP  RH WIND       PRES   REMARKS
CASA GRANDE    CLEAR     54  23  30 CALM      30.07R
6HR MIN TEMP:  52; 6HR MAX TEMP:  66;

GILA BEND      FAIR      56  22  26 S6        30.05R
6HR MIN TEMP:  56; 6HR MAX TEMP:  67;

$$

AZZ503-504-507>509-271300-
SOUTHEAST ARIZONA

CITY           SKY/WX    TMP DP  RH WIND       PRES   REMARKS
TUCSON         CLEAR     54  26  34 SE8       30.16R
6HR MIN TEMP:  53; 6HR MAX TEMP:  67;

DAVIS-MONTHAN  CLEAR     55  26  31 SE10      30.14R
6HR MIN TEMP:  51; 6HR MAX TEMP:  62;

NOGALES        CLEAR     46  25  43 NE6       30.19R
6HR MIN TEMP:  45; 6HR MAX TEMP:  60;

SIERRA VISTA   CLEAR     49  24  38 W1        30.23R
6HR MIN TEMP:  47; 6HR MAX TEMP:  57;

DOUGLAS        CLEAR     37  28  70 CALM      30.22R
6HR MIN TEMP:  36; 6HR MAX TEMP:  51;

SAFFORD        CLEAR     43  24  47 N3        30.19R
6HR MIN TEMP:  43; 6HR MAX TEMP:  57;

$$

AZZ020-021-025-026-031-271300-
SOUTHWEST ARIZONA

CITY           SKY/WX    TMP DP  RH WIND       PRES   REMARKS
YUMA           CLEAR     66  33  29 NE3       30.01S
6HR MIN TEMP:  64; 6HR MAX TEMP:  77;

$$

CAZ031-033-041-043-047-048-061-271300-
SOUTHERN CALIFORNIA

CITY           SKY/WX    TMP DP  RH WIND       PRES   REMARKS
DOWNTOWN L.A.  CLEAR     66  40  38 CALM      30.02S
6HR MIN TEMP:  66; 6HR MAX TEMP:  72;

L.A. AIRPORT   CLEAR     62  50  64 CALM      30.04R
6HR MIN TEMP:  61; 6HR MAX TEMP:  68;

SAN DIEGO      CLEAR     63  49  60 CALM      30.05R
6HR MIN TEMP:  63; 6HR MAX TEMP:  71;

BURBANK        CLEAR     63  38  39 CALM      30.05R
6HR MIN TEMP:  62; 6HR MAX TEMP:  73;

ONTARIO        CLEAR     64  35  34 CALM      30.06S
6HR MIN TEMP:  61; 6HR MAX TEMP:  73;

RIVERSIDE      CLEAR     64  35  34 NE6       30.06S
6HR MIN TEMP:  60; 6HR MAX TEMP:  73;

PALM SPRINGS   CLEAR     68  29  23 NW7       30.05S
6HR MIN TEMP:  66; 6HR MAX TEMP:  79;

EL CENTRO NAS  CLEAR     65  24  21 W6        30.01R
6HR MIN TEMP:  61; 6HR MAX TEMP:  72;

IMPERIAL       CLEAR     60  33  36 W6        30.00S
6HR MIN TEMP:  57; 6HR MAX TEMP:  68;

BLYTHE         CLEAR     59  28  30 CALM      30.04S
6HR MIN TEMP:  59; 6HR MAX TEMP:  70;

NEEDLES        CLEAR     60  24  25 CALM      30.08R
6HR MIN TEMP:  60; 6HR MAX TEMP:  74;

$$

NVZ020-UTZ003-271300-
SOUTHERN NEVADA-UTAH

CITY           SKY/WX    TMP DP  RH WIND       PRES   REMARKS
LAS VEGAS      CLEAR     60  28  29 S10       30.12S
6HR MIN TEMP:  59; 6HR MAX TEMP:  67;

SALT LAKE CITY CLEAR     40  30  67 SE7       30.32S
6HR MIN TEMP:  40; 6HR MAX TEMP:  48;

$$

NMZ009-TXZ055-271300-
NEW MEXICO-WEST TEXAS

CITY           SKY/WX    TMP DP  RH WIND       PRES   REMARKS
ALBUQUERQUE    CLEAR     45  20  36 CALM      30.28R
6HR MIN TEMP:  44; 6HR MAX TEMP:  51;

EL PASO        PTCLDY    49  29  46 CALM      30.24R
6HR MIN TEMP:  46; 6HR MAX TEMP:  56;

$$


........................KEY........................
SKY/WX - SKY CONDITION/WEATHER
TMP    - TEMPERATURE IN FAHRENHEIT
DP     - DEW POINT IN FAHRENHEIT
RH     - RELATIVE HUMIDITY IN PERCENT
WIND   - DIRECTION AND SPEED IN MILES PER HOUR (MPH)
VRB    - VARIABLE WIND DIRECTION
PRES   - MEAN SEA LEVEL PRESSURE IN INCHES OF MERCURY
         F - FALLING PRESSURE   R - RISING PRESSURE
         S - STEADY PRESSURE
VSB    - VISIBILITY IN MILES
HX     - HEAT INDEX IN FAHRENHEIT
WCI    - WIND CHILL INDEX IN FAHRENHEIT
TC     - TEMPERATURE IN CELSIUS WHICH IS ALSO KNOWN AS
         TEMPERATURE IN CENTIGRADE
AFB    - AIR FORCE BASE
         LUKE AFB IS LUKE AIR FORCE BASE
         DAVIS-MONTHAN IS DAVIS-MONTHAN AIR FORCE BASE
NAS    - NAVAL AIR STATION
         EL CENTRO NAS IS EL CENTRO NAVAL AIR STATION
N/A    - NOT AVAILABLE



USA.gov is the U.S. government's official web portal to all federal, state and local government web resources and services.